Change the Weather History Date:

Wednesday, November 14, 2012

  Actual Average Record
Temperature  
Mean Temperature 32 °F -  
Max Temperature 36 °F 49 °F 73 °F (1989)
Min Temperature 27 °F 31 °F 10 °F (1986)
Degree Days  
Heating Degree Days 32    
Moisture  
Dew Point 24 °F    
Average Humidity 72    
Maximum Humidity 84    
Minimum Humidity 56    
Precipitation  
Precipitation 0.00 in - - ()
Sea Level Pressure  
Sea Level Pressure 30.58 in    
Wind  
Wind Speed 2 mph (NE)    
Max Wind Speed 8 mph    
Max Gust Speed -    
Visibility 10 miles    
Events      
Averages and records for this station are not official NWS values.
T = Trace of Precipitation, MM = Missing Value Source: NWS Daily Summary

Daily Weather History Graph

Daily Weather History Graph

Search for Another Location

Airport or City:

Trip Planner

Search our weather history database for the weather conditions in past years. The results will help you decide how hot, cold, wet, or windy it might be!

Date:

Astronomy

Nov. 14, 2012 Rise Set
Actual Time 7:08 AM EST 5:03 PM EST
Civil Twilight 6:39 AM EST 5:32 PM EST
Nautical Twilight 6:05 AM EST 6:06 PM EST
Astronomical Twilight 5:33 AM EST 6:38 PM EST
Moon 7:56 AM EST (11/14) 5:49 PM EST (11/14)
Length of Visible Light 10h 53m
Length of Day
9h 54m
New Moon, 1% of the Moon is Illuminated
Nov 14
New Moon
Nov 20
First Quarter
Nov 28
Full
Dec 6
Last Quarter
Dec 13
New

Hourly Weather History & Observations

Time (EST) Temp. Windchill Dew Point Humidity Pressure Visibility Wind Dir Wind Speed Gust Speed Precip Events Conditions
12:56 AM 32.0 °F - 27.1 °F 82% 30.62 in 10.0 mi Calm Calm - N/A   Overcast
1:15 AM 32.0 °F - 26.6 °F 80% 30.53 in 10.0 mi Calm Calm - N/A   Overcast
1:56 AM 32.0 °F - 26.1 °F 79% 30.61 in 10.0 mi Calm Calm - N/A   Overcast
2:56 AM 32.0 °F - 27.1 °F 82% 30.61 in 10.0 mi Calm Calm - N/A   Overcast
3:17 AM 32.0 °F - 26.6 °F 80% 30.53 in 10.0 mi Calm Calm - N/A   Overcast
3:56 AM 32.0 °F - 27.1 °F 82% 30.61 in 10.0 mi Calm Calm - N/A   Overcast
4:56 AM - - - N/A% 30.54 in 10.0 mi Calm Calm - N/A   Overcast
5:56 AM 32.0 °F - 27.1 °F 82% 30.64 in 10.0 mi Calm Calm - N/A   Overcast
6:04 AM 32.0 °F - 26.6 °F 80% 30.56 in 10.0 mi Calm Calm - N/A   Overcast
6:56 AM 32.0 °F 27.5 °F 25.2 °F 76% 30.64 in 10.0 mi NE 4.6 mph - N/A   Overcast
7:56 AM 32.9 °F 28.5 °F 24.1 °F 70% 30.65 in 10.0 mi NNE 4.6 mph - N/A   Overcast
8:56 AM 32.9 °F 26.7 °F 23.0 °F 67% 30.66 in 10.0 mi ENE 6.9 mph - N/A   Overcast
9:56 AM 34.0 °F 27.2 °F 23.0 °F 64% 30.65 in 10.0 mi ENE 8.1 mph - N/A   Overcast
10:56 AM 34.9 °F 30.8 °F 23.0 °F 62% 30.65 in 10.0 mi Variable 4.6 mph - N/A   Overcast
11:10 AM 35.6 °F - 21.2 °F 56% 30.57 in 10.0 mi Calm Calm - N/A   Overcast
11:56 AM 34.9 °F 28.3 °F 23.0 °F 62% 30.63 in 10.0 mi NNE 8.1 mph - N/A   Overcast
12:56 PM 36.0 °F 29.6 °F 23.0 °F 59% 30.61 in 10.0 mi NE 8.1 mph - N/A   Overcast
1:56 PM 36.9 °F 31.4 °F 24.1 °F 60% 30.58 in 10.0 mi East 6.9 mph - N/A   Mostly Cloudy
2:56 PM 36.9 °F 31.4 °F 24.1 °F 60% 30.56 in 10.0 mi NNE 6.9 mph - N/A   Scattered Clouds
3:56 PM 36.0 °F 32.1 °F 24.1 °F 62% 30.56 in 10.0 mi NNE 4.6 mph - N/A   Clear
4:56 PM 34.9 °F 30.8 °F 24.1 °F 65% 30.47 in 10.0 mi NNW 4.6 mph - N/A   Clear
5:56 PM 32.9 °F 29.8 °F 24.1 °F 70% 30.55 in 10.0 mi North 3.5 mph - N/A   Clear
6:56 PM 32.0 °F - 24.1 °F 73% 30.54 in 10.0 mi Calm Calm - N/A   Clear
7:56 PM 31.1 °F 26.4 °F 24.1 °F 75% 30.53 in 10.0 mi NE 4.6 mph - N/A   Clear
8:56 PM 30.0 °F - 23.0 °F 75% 30.53 in 10.0 mi Calm Calm - N/A   Clear
9:56 PM 29.1 °F 23.0 °F 23.0 °F 78% 30.51 in 10.0 mi East 5.8 mph - N/A   Clear
10:56 PM 29.1 °F 24.1 °F 23.0 °F 78% 30.49 in 10.0 mi East 4.6 mph - N/A   Clear
11:56 PM 27.1 °F - 23.0 °F 84% 30.49 in 10.0 mi Calm Calm - N/A   Clear